Location: Anciles
(42.5833°N, 0.5167°E)
Time: 17:51:51
(UTC+00:00)

Cosmos 1417 Rocket - Pass Details

Date: 10 December 2019
Orbit: 952 x 998 km, 83.0° (Epoch: 29 January)

Event Time Altitude Azimuth Distance (km) Brightness Sun altitude
Rises 18:10:41 0° 356° (N) 3,639 7.4 -18.8°
Reaches altitude 10° 18:13:16 10° 1° (N) 2,688 6.7 -19.3°
Maximum altitude 18:19:16 54° 78° (ENE) 1,151 4.5 -20.4°
Drops below altitude 10° 18:25:14 10° 155° (SSE) 2,682 6.7 -21.4°
Sets 18:27:48 0° 160° (SSE) 3,628 7.4 -21.9°
